GFSWCAN_prec_cloud_072.txt.gz
Cloud_Cover
84 100 100 100 100 100 66 62 5 28 100 100 99 80 31 20 100 100 100 100 100 100 93 100 100 94 100 81 6 30 70 37 93 36 77 83 53 10 85 100 100 100 100 100 100 100 98 100 100 95 99 100 100 100
100 100 100 95 100 100 100 97 56 100 100 100 100 100 100 59 78 100 100 100 100 100 100 100 100 100 100 100 100 76 0 64 2 76 43 98 98 33 26 100 100 100 100 100 100 100 100 100 100 100 100 100 100 100
100 100 80 100 97 100 86 86 100 100 100 100 100 100 71 100 63 100 100 100 100 100 100 100 100 100 100 100 78 41 3 8 100 93 68 57 64 5 68 100 100 100 100 100 100 100 100 100 100 100 100 100 100 100
100 98 100 38 100 55 89 39 100 100 99 100 100 100 78 100 100 100 100 100 100 100 100 100 100 100 100 100 10 12 5 4 5 40 100 91 3 4 88 100 78 100 100 100 100 100 100 100 100 100 100 100 100 100
100 98 84 100 100 52 95 100 100 98 43 100 100 100 100 100 100 100 100 100 100 100 100 100 100 100 100 100 13 4 5 16 82 100 50 1 1 6 8 88 100 49 95 100 100 100 100 100 100 100 100 100 100 100
100 70 94 100 100 100 100 45 14 46 99 100 100 100 100 99 100 100 100 100 100 100 100 100 100 93 100 100 15 5 4 5 90 100 87 52 9 62 44 34 100 84 100 100 100 100 100 100 100 100 100 100 100 100
100 100 100 100 100 100 100 100 100 100 100 100 100 100 100 100 100 100 100 100 100 100 100 100 100 100 100 100 51 38 5 5 100 100 80 13 5 9 2 78 100 100 97 97 97 100 100 100 100 100 100 100 100 100
100 100 100 97 100 100 95 100 100 100 100 100 100 100 100 100 100 100 100 100 100 100 100 100 100 100 100 96 98 8 24 100 100 52 90 97 5 0 13 100 100 100 95 58 100 100 100 100 100 100 100 100 100 100
100 100 100 100 100 100 100 100 100 100 100 100 100 100 100 100 100 100 100 100 100 100 100 100 100 100 100 62 55 82 55 98 100 100 96 79 2 1 54 97 100 57 76 27 96 100 95 100 100 100 100 100 100 100
100 100 100 100 100 100 100 100 100 100 100 100 100 100 100 100 100 100 100 100 100 100 100 62 14 23 83 100 100 100 100 100 100 100 84 56 5 98 100 100 35 5 8 89 72 100 100 100 100 100 100 100 100 100
100 100 100 100 100 100 100 100 100 100 100 100 100 100 100 100 100 100 100 100 100 93 14 23 18 84 100 100 100 100 100 100 100 100 59 25 85 76 90 100 100 99 60 42 100 100 100 100 100 100 100 100 100 100
100 100 100 100 100 100 100 100 100 100 100 100 100 100 100 100 100 100 99 98 66 12 38 84 95 100 100 100 100 89 100 100 100 74 89 78 100 100 100 100 100 100 70 24 47 53 95 100 100 100 100 100 100 100
100 100 100 100 100 100 100 100 100 100 100 100 100 100 100 100 100 100 100 86 81 70 100 100 100 100 100 100 100 100 100 100 100 100 100 100 100 100 100 100 100 100 68 96 98 99 99 100 100 100 100 100 100 100
31 25 47 90 100 100 100 100 100 100 100 100 100 100 100 100 100 100 100 100 100 100 100 100 100 100 100 100 100 100 100 100 100 100 100 100 100 100 100 100 100 100 100 100 100 100 100 100 100 100 100 100 100 100
100 87 57 58 73 94 81 23 38 72 25 86 71 98 99 100 100 100 100 100 100 100 100 100 100 100 100 100 100 100 100 100 100 100 100 100 100 100 100 100 100 100 100 100 100 100 100 100 100 100 100 100 96 100
100 100 100 100 92 100 100 76 16 35 99 60 74 100 100 100 100 100 100 100 100 100 100 100 100 100 100 100 100 100 100 100 100 100 100 100 100 100 100 100 100 100 100 100 100 100 100 100 100 100 100 100 100 100
98 99 54 97 90 89 100 88 95 87 96 94 100 100 100 100 100 100 100 100 100 100 100 100 100 100 100 100 100 97 100 100 100 100 100 100 100 100 100 100 100 100 100 100 100 100 100 100 100 100 100 99 84 95
100 100 96 100 100 100 100 100 100 100 100 100 100 100 100 100 100 96 100 100 100 100 100 100 100 100 100 100 100 100 100 100 100 100 100 100 100 100 100 100 100 100 100 100 100 100 100 100 99 100 100 100 100 100
100 100 100 100 100 100 100 100 100 100 100 100 97 98 100 100 100 100 100 100 100 100 100 100 96 100 100 100 100 100 100 100 100 100 100 100 100 100 100 100 100 100 100 100 100 100 100 100 100 100 100 100 100 100
100 100 100 100 100 100 100 100 100 100 100 100 100 100 100 100 100 100 100 100 100 100 100 100 100 100 100 100 100 100 100 100 100 100 100 100 100 100 100 100 100 100 100 100 100 100 100 100 100 100 100 100 100 98
100 100 100 100 100 100 100 100 100 100 100 100 100 100 100 100 100 100 100 100 100 100 100 100 100 100 100 100 100 100 100 100 100 100 100 100 100 100 100 100 100 100 100 100 100 100 100 98 98 100 98 100 100 100
100 100 100 100 100 100 100 100 100 100 100 100 100 100 100 100 100 100 100 100 100 100 100 100 100 100 100 100 100 100 100 100 100 100 100 100 100 100 100 100 100 100 100 100 100 99 100 100 100 100 100 100 93 78
100 100 100 100 100 97 96 100 100 100 100 100 100 100 100 100 100 100 100 100 100 100 100 100 100 100 100 100 100 100 100 100 100 100 100 100 100 100 100 100 100 100 100 100 100 100 100 100 100 91 79 92 98 97
100 100 100 100 100 98 94 99 98 92 100 100 100 100 100 100 100 100 100 100 100 100 100 100 100 100 100 100 100 100 100 100 100 100 100 100 100 100 100 100 100 100 100 100 100 100 100 98 97 100 96 92 93 99
89 88 85 100 91 86 95 100 98 100 100 100 100 100 100 100 100 100 100 100 100 100 100 100 100 100 100 100 100 100 100 100 100 100 100 100 100 100 100 100 100 100 100 100 100 100 100 100 99 89 92 99 100 100
100 100 94 100 100 99 100 100 100 100 100 100 100 100 100 99 100 100 100 100 100 100 100 100 100 100 100 100 100 100 100 100 100 100 100 100 100 100 100 100 100 100 100 100 100 100 100 100 100 100 100 75 30 85
100 100 98 99 100 100 100 100 100 96 100 100 100 100 100 100 100 100 100 100 100 100 100 100 100 100 100 100 100 100 100 100 100 100 100 100 100 100 100 100 100 100 100 100 100 100 100 100 99 100 100 100 91 89
100 100 100 92 100 97 100 100 100 100 100 100 100 100 100 100 100 100 100 100 100 100 100 100 100 100 100 100 100 100 100 100 100 100 100 100 100 100 100 100 100 100 100 100 97 100 100 100 100 97 87 91 76 98
99 77 5 26 77 100 100 100 100 100 99 100 100 100 100 100 100 100 100 100 100 100 100 100 100 100 100 100 100 100 100 100 100 100 100 100 100 100 100 100 100 100 100 81 10 63 55 52 51 86 77 99 100 100
89 67 5 65 89 100 100 100 100 100 100 100 100 100 100 100 100 100 100 100 100 100 100 100 100 100 100 100 100 100 100 100 100 100 100 100 100 100 100 100 100 100 100 100 100 93 51 80 83 99 97 100 100 50
96 45 26 96 100 100 100 100 100 99 100 100 100 99 100 100 100 100 100 100 100 100 100 100 100 100 100 100 100 100 100 100 100 85 99 100 100 100 100 100 100 100 100 100 100 98 72 96 100 100 100 94 77 86
85 46 32 87 100 94 100 100 100 100 100 100 100 100 100 100 100 100 100 100 100 100 92 100 100 100 100 100 100 100 100 100 100 98 100 100 100 100 100 100 100 100 100 100 100 100 100 98 100 100 100 100 98 54
84 72 42 98 100 100 100 100 100 98 100 100 100 100 100 98 100 100 100 99 100 100 100 100 100 100 77 95 96 81 100 90 42 26 5 14 5 13 87 100 100 100 100 100 100 100 100 100 100 87 84 97 100 95

GFSWCAN_prec_cloud_075.txt.gz
Cloud_Cover
23 53 74 81 100 100 100 100 100 100 100 100 100 98 52 55 100 100 100 100 100 100 98 100 100 78 64 100 100 100 100 46 85 20 0 4 72 100 98 75 100 70 100 100 100 100 100 100 100 100 98 100 100 100
94 51 97 100 100 97 100 100 100 100 99 95 100 100 93 5 100 100 100 100 100 100 100 100 100 99 28 99 78 100 66 100 21 2 0 5 5 100 23 82 99 90 100 100 100 100 100 100 100 100 100 100 100 100
83 100 100 97 100 100 98 100 98 90 100 93 93 100 100 100 94 100 100 100 100 100 100 100 87 100 96 57 100 36 45 100 6 5 4 5 89 86 54 5 100 100 100 100 100 100 100 100 100 100 100 100 100 98
100 100 98 100 100 100 92 50 67 95 64 99 82 59 100 100 100 100 100 100 100 100 100 98 100 89 81 97 100 54 97 88 93 11 3 100 32 99 8 78 52 91 100 100 100 100 100 100 100 100 100 100 100 95
100 100 100 81 100 66 100 95 99 72 100 100 100 100 100 100 100 100 100 100 100 100 100 100 100 100 100 80 73 100 100 100 100 24 62 24 88 99 12 69 100 100 100 100 100 100 100 100 100 100 100 100 100 100
100 100 100 100 93 88 100 100 100 100 86 100 100 100 100 100 100 100 100 100 100 100 100 98 100 100 100 100 100 100 100 100 100 5 11 5 67 81 63 20 79 100 100 100 100 100 100 100 100 100 100 100 100 100
100 98 100 100 100 91 92 100 100 90 100 100 100 100 100 100 100 100 100 100 100 100 100 100 100 100 100 100 100 98 100 100 84 29 6 53 100 99 100 54 83 100 100 100 100 100 100 100 100 100 100 100 100 100
100 100 100 100 100 100 98 93 63 100 100 100 100 100 100 100 100 100 100 100 100 100 100 100 100 99 83 40 90 100 100 100 63 5 20 95 100 100 97 69 100 92 100 21 57 68 100 100 100 100 100 100 100 100
100 100 100 100 100 100 100 100 100 100 100 100 100 100 100 100 100 100 100 100 100 88 81 100 100 98 98 81 61 57 100 98 73 11 7 63 100 100 86 8 38 50 100 99 86 72 89 100 97 100 100 100 100 100
100 100 100 100 100 100 100 100 100 100 100 100 100 100 100 100 100 100 100 100 100 100 100 100 100 100 92 83 87 100 100 85 100 38 100 100 100 100 100 100 53 100 88 25 19 100 100 100 100 100 100 100 100 100
100 100 100 100 100 100 100 100 100 100 100 100 100 100 100 100 100 100 96 100 96 100 100 100 98 100 99 100 97 65 100 100 96 93 100 100 100 100 100 69 90 100 100 17 5 73 62 99 100 100 100 100 100 100
100 100 100 100 100 100 100 100 100 100 100 100 96 99 100 100 100 100 100 100 100 100 100 100 100 100 100 61 100 100 100 96 67 100 100 100 100 100 100 100 67 100 100 67 13 36 50 100 100 100 100 100 100 100
100 100 100 100 100 100 100 100 100 100 100 100 100 100 100 100 100 100 100 100 100 100 100 93 64 59 81 95 100 100 100 100 100 100 100 100 100 100 100 100 100 100 100 96 95 97 99 100 100 100 100 100 100 100
100 100 100 100 100 100 100 100 100 100 100 100 100 100 100 100 100 100 100 100 100 100 23 95 100 100 100 100 100 100 100 100 100 100 100 100 100 100 100 100 100 100 100 100 100 100 100 100 100 100 100 100 100 100
100 100 100 100 100 100 100 100 100 100 100 100 100 100 100 100 100 100 100 100 100 100 100 100 100 100 100 100 100 100 100 100 100 100 100 100 100 100 100 100 100 100 100 100 100 100 100 100 100 100 100 100 100 100
25 43 67 99 91 99 100 100 100 100 100 100 100 100 100 100 100 100 100 100 100 100 100 100 100 100 100 100 100 100 100 100 100 100 100 100 100 100 100 100 100 100 100 100 100 100 100 100 100 100 100 100 100 100
94 73 84 91 95 9 5 5 82 63 94 100 100 100 94 99 100 100 100 100 100 100 100 100 100 100 100 100 100 100 100 100 100 100 100 100 100 100 100 100 100 100 100 100 100 100 100 100 100 100 100 100 100 100
100 100 100 100 100 100 69 100 90 9 7 89 99 100 84 98 92 100 100 100 100 100 100 100 100 100 100 100 100 100 100 100 100 100 100 100 100 100 100 100 100 100 100 100 100 100 100 100 100 100 100 100 100 100
100 100 100 100 100 100 100 99 34 17 83 87 98 98 100 100 93 99 98 100 100 100 100 100 100 100 100 100 100 100 100 100 100 100 100 100 100 100 100 100 100 100 100 100 100 100 100 100 100 100 100 100 100 100
100 99 100 100 100 100 100 100 96 77 90 92 93 100 94 100 100 100 99 95 100 100 100 100 100 100 100 100 100 100 100 100 100 100 100 100 100 100 100 100 100 100 100 100 100 100 100 100 100 100 100 100 100 100
100 95 100 100 100 100 100 100 100 100 100 100 100 100 100 100 99 36 8 83 100 100 100 100 100 100 100 100 100 100 100 100 100 100 100 100 100 100 100 100 100 100 100 100 100 100 100 100 100 100 100 100 100 100
100 100 100 100 100 100 100 100 100 100 100 100 100 100 100 100 100 100 100 100 100 100 100 100 100 100 100 100 100 100 100 100 100 100 100 100 100 100 100 100 100 100 100 100 100 100 100 100 100 100 100 100 100 86
100 100 100 100 100 100 100 100 100 100 100 100 100 100 100 100 100 100 100 100 100 100 100 100 100 100 100 100 100 100 100 100 100 100 100 100 100 100 100 100 100 100 100 100 100 100 100 100 100 100 89 92 85 100
100 100 100 100 100 98 97 96 99 100 100 100 100 100 100 100 100 99 100 100 100 100 100 100 100 100 100 100 100 100 100 100 100 100 100 100 100 100 100 100 100 100 100 100 100 100 100 100 100 100 100 100 95 63
91 56 49 71 84 96 100 100 89 98 100 100 100 100 100 100 100 100 100 100 100 100 100 100 100 100 100 100 100 100 100 100 100 100 100 100 100 100 100 100 100 100 100 100 100 99 96 95 97 90 72 61 65 86
100 93 94 99 90 88 88 100 100 100 100 100 100 100 100 99 89 99 100 100 100 100 100 100 100 100 100 100 100 100 100 100 100 100 100 100 100 100 100 100 100 100 100 100 100 100 99 99 88 94 99 86 67 45
66 84 70 96 99 84 86 77 42 12 66 98 96 76 85 96 100 100 100 100 100 100 100 100 100 100 100 100 100 100 100 100 100 100 100 100 100 100 100 100 100 100 100 100 100 100 100 100 100 88 27 6 18 36
100 99 100 99 95 44 48 86 83 100 81 92 65 62 85 100 100 100 96 100 100 100 100 100 100 100 100 100 100 100 100 100 100 100 100 100 100 100 100 100 100 100 100 100 100 100 85 23 5 36 32 5 5 8
100 100 97 72 38 26 86 95 100 99 77 98 98 100 87 100 100 95 100 100 100 100 100 100 100 100 100 100 100 100 100 100 100 100 100 100 100 100 100 100 100 100 100 92 28 39 6 5 5 5 36 100 100 100
57 10 7 14 69 100 96 99 87 58 10 5 60 90 86 98 100 100 100 100 100 100 100 100 100 100 100 100 100 100 100 100 100 100 100 100 100 100 95 90 37 42 90 89 100 55 71 90 90 80 28 20 6 5
18 5 16 13 64 87 74 46 7 36 58 47 44 5 19 69 91 85 88 76 88 100 100 100 100 100 100 100 100 100 100 100 100 100 100 100 100 90 42 10 72 100 39 23 77 5 5 92 100 92 100 53 73 80
15 5 5 9 80 86 100 100 95 95 99 5 10 14 93 84 91 84 84 88 100 88 100 98 100 100 100 100 100 100 100 100 100 100 91 56 95 79 77 51 79 9 5 81 59 67 5 5 7 86 91 79 76 26
25 9 15 18 81 98 84 100 62 83 99 98 90 94 79 94 96 96 100 97 100 91 100 88 68 70 65 7 42 56 58 29 24 53 72 73 71 66 92 91 51 63 5 5 91 97 96 96 5 5 5 63 99 75

GFSWCAN_prec_cloud_078.txt.gz
Cloud_Cover
69 5 5 5 5 5 86 100 100 100 100 100 100 96 100 100 100 100 100 100 100 100 100 100 97 93 100 100 94 100 100 83 15 46 20 38 99 36 100 100 100 100 100 100 100 93 100 100 100 100 100 100 100 100
6 5 5 5 79 100 100 100 100 100 100 100 100 100 100 100 100 100 100 100 100 100 100 98 57 100 100 100 100 100 100 32 5 5 5 50 70 100 100 100 100 100 100 100 100 78 100 100 100 100 100 99 100 100
54 90 76 100 100 100 96 59 96 100 100 100 100 100 100 100 100 100 100 100 100 100 100 99 31 54 100 100 100 100 100 82 88 35 25 16 5 22 100 100 100 100 99 100 94 100 100 100 100 100 100 100 100 100
100 100 100 100 100 89 99 89 100 100 98 100 100 98 100 100 100 91 100 100 100 100 100 96 99 100 100 100 100 76 93 39 64 96 40 58 32 4 53 100 100 100 100 94 33 99 100 100 100 100 100 100 100 100
100 100 100 100 100 88 100 100 81 98 100 100 86 100 100 100 100 100 100 100 100 100 100 34 100 100 100 100 99 58 82 36 100 100 81 56 96 12 36 81 76 100 97 88 93 100 100 100 100 100 100 100 100 100
100 100 100 100 89 100 100 100 91 100 100 100 100 100 100 100 100 100 100 100 100 100 100 100 90 100 100 100 97 95 6 95 94 100 55 100 99 14 24 94 54 82 100 100 100 100 100 100 100 100 100 100 100 100
91 100 100 99 100 92 63 100 100 100 100 100 100 100 100 100 100 100 100 75 99 95 100 100 100 100 100 100 100 96 97 72 75 100 100 100 100 91 42 77 17 74 6 62 16 100 100 100 100 100 100 100 100 100
94 92 100 100 100 94 99 100 100 100 100 100 100 100 100 100 100 100 100 100 100 100 100 100 100 100 100 100 100 91 97 91 81 98 96 100 99 8 91 92 100 90 78 90 96 99 100 100 100 100 100 100 100 100
100 100 100 85 100 100 100 100 100 100 100 100 100 100 100 100 100 100 100 100 100 100 100 100 99 100 100 74 69 100 100 99 60 35 100 100 7 55 62 100 100 37 65 100 73 98 100 100 100 100 100 100 100 100
100 100 100 100 81 86 100 100 100 100 100 100 100 100 100 100 100 100 100 100 100 100 100 95 76 100 100 100 99 100 100 91 99 82 100 100 22 67 100 100 100 100 100 98 5 38 100 100 100 100 100 100 100 100
100 100 100 100 100 100 100 100 100 100 100 100 100 100 100 100 100 100 100 100 94 81 100 100 100 100 100 100 100 100 100 100 100 81 100 99 73 83 100 100 98 100 100 77 5 26 100 100 100 100 100 100 97 83
100 100 100 100 100 100 100 100 100 92 100 100 99 100 100 100 100 100 84 86 73 96 99 100 100 100 100 100 100 88 100 100 69 76 98 100 100 100 97 100 100 100 100 100 89 87 100 100 100 91 99 98 93 100
100 100 100 100 100 100 100 100 100 96 74 100 100 100 100 98 99 98 100 100 100 100 100 100 98 100 100 95 96 100 100 100 96 93 100 100 100 100 100 100 100 100 100 100 100 100 100 100 100 100 100 100 100 100
100 100 100 100 100 100 100 100 100 100 100 100 100 100 100 100 100 100 100 100 100 100 100 100 100 100 100 99 100 100 100 100 100 100 100 100 100 100 100 100 100 100 100 100 100 100 100 100 100 100 100 100 100 100
100 100 100 100 100 100 100 100 100 100 100 100 100 100 100 100 100 100 100 100 100 100 100 98 99 88 100 94 100 100 100 100 100 100 100 100 100 100 100 100 100 100 100 100 100 100 100 100 100 100 100 100 100 100
100 100 96 100 100 100 100 100 100 100 100 100 100 100 100 100 100 100 100 100 100 100 100 100 100 100 100 100 100 100 100 99 100 100 100 100 100 100 100 100 100 100 100 100 100 100 100 100 100 100 100 100 100 100
24 42 92 100 100 100 100 100 100 100 100 100 100 100 100 100 100 100 100 100 100 100 100 100 100 100 100 100 100 100 100 100 100 100 100 100 100 100 100 100 100 100 100 100 100 100 100 100 100 100 100 100 100 100
100 100 100 44 7 12 100 100 100 100 86 94 76 100 100 100 100 100 100 100 100 100 100 99 92 100 100 100 100 100 100 100 100 100 100 100 100 100 100 100 100 100 100 100 100 100 100 100 100 100 100 100 100 100
100 100 100 100 100 100 82 9 19 82 93 91 98 92 100 100 100 100 100 100 100 100 100 100 100 100 100 100 100 100 100 100 100 100 100 100 100 100 100 100 100 100 100 100 100 100 100 100 100 100 100 100 100 100
100 100 100 100 100 99 65 37 5 6 89 88 95 96 98 89 97 93 100 100 100 100 100 100 100 100 100 100 99 100 100 100 100 100 100 100 100 100 100 100 100 100 100 100 100 100 100 100 100 100 100 100 100 100
98 90 100 100 100 100 100 100 100 100 97 81 94 99 92 100 99 96 100 100 98 92 100 100 100 100 100 100 100 100 100 100 100 100 100 100 100 100 100 100 100 100 100 100 100 100 100 100 100 100 100 100 100 100
100 99 100 100 100 100 100 100 100 100 97 99 100 100 100 100 100 96 95 93 100 100 99 100 100 100 100 100 100 100 100 100 100 100 100 100 100 100 100 100 100 100 100 100 100 100 100 100 100 100 100 100 100 100
100 100 100 100 100 100 100 100 100 100 100 100 100 100 99 96 90 91 76 96 100 100 100 100 100 100 100 100 100 100 100 100 100 100 100 100 100 100 100 100 100 100 100 100 100 100 100 100 100 100 100 100 100 100
100 96 100 100 99 100 100 100 100 100 100 100 100 100 100 100 100 100 100 100 100 100 100 100 100 100 100 100 100 100 100 100 100 100 100 100 100 100 100 100 100 100 100 100 100 100 100 100 93 92 99 100 100 100
89 67 91 84 68 72 69 53 80 92 100 100 100 100 100 100 100 100 100 100 100 100 100 100 100 100 100 100 100 100 100 100 100 100 100 100 100 100 100 100 100 100 100 100 100 100 100 100 100 97 90 93 85 86
100 100 100 100 100 100 94 100 99 89 99 100 99 100 96 95 99 100 100 100 100 100 100 100 100 100 98 100 100 100 100 100 100 100 100 100 100 100 100 100 100 100 100 100 100 100 100 100 100 100 100 100 92 75
77 94 81 92 99 76 90 64 26 10 86 96 94 77 71 82 99 99 97 100 99 100 100 100 100 100 100 100 100 100 100 100 100 100 100 100 100 100 100 100 100 100 100 100 100 100 100 100 100 96 87 82 55 32
97 98 100 72 43 31 50 62 83 100 94 99 47 84 76 93 100 100 90 99 100 100 100 100 100 100 100 100 100 100 100 100 100 100 100 100 100 100 100 100 100 100 100 100 100 100 96 46 45 27 22 40 16 57
86 78 86 91 68 44 96 98 99 69 80 98 76 99 98 99 100 80 96 98 100 100 100 100 100 100 100 100 100 100 100 100 100 100 100 100 100 100 100 100 100 100 100 100 99 62 20 11 13 6 36 64 76 100
14 13 5 38 59 100 100 62 90 20 17 64 74 99 92 100 100 97 98 89 96 100 100 100 100 100 100 100 100 100 100 100 100 100 100 100 100 100 100 100 100 97 88 44 58 84 58 53 90 26 20 30 30 24
70 45 34 30 96 100 100 56 39 5 5 6 8 40 86 98 100 100 87 98 97 100 98 100 100 100 100 100 100 100 100 100 100 100 100 100 100 99 84 81 68 56 71 34 5 5 76 78 98 100 100 71 46 55
21 23 34 76 94 95 100 100 69 68 92 50 67 95 84 79 95 79 91 90 100 100 85 84 100 100 100 100 100 100 100 100 100 100 100 100 100 100 94 62 6 5 45 70 48 5 7 35 81 72 69 64 55 60
16 26 66 78 88 100 90 100 57 100 99 99 99 100 100 100 94 96 94 96 100 100 100 100 100 100 100 58 58 96 67 62 94 73 96 98 80 85 100 95 48 14 24 75 100 84 30 12 39 8 57 94 98 96

GFSWCAN_prec_cloud_081.txt.gz
Cloud_Cover
100 100 100 96 100 99 100 100 100 100 100 100 100 100 100 100 100 100 100 100 100 100 100 100 100 100 100 100 100 100 93 7 41 34 49 87 96 98 3 87 100 100 100 100 100 100 93 78 100 80 55 100 100 100
100 93 92 92 29 5 5 12 58 93 100 100 100 100 100 100 100 100 100 100 100 100 100 100 100 100 100 100 100 100 100 94 10 5 7 5 5 25 80 92 100 100 100 100 100 100 100 100 100 100 100 100 100 100
70 36 31 57 63 100 100 100 100 100 100 100 100 100 100 100 100 100 100 100 100 100 100 98 86 100 100 100 100 100 100 98 91 99 75 91 73 5 16 5 100 100 100 100 100 100 100 100 100 75 100 100 100 100
72 99 100 95 100 100 100 98 79 84 89 63 63 100 100 100 100 100 100 100 100 100 100 100 30 83 100 100 100 100 100 100 56 100 100 85 99 5 48 73 96 85 100 100 100 100 100 100 98 100 100 100 100 100
100 100 100 100 100 99 98 90 99 100 98 100 100 100 100 100 100 100 100 100 100 100 100 90 90 100 100 100 98 100 100 92 99 100 100 98 46 35 5 13 100 100 100 100 100 100 72 100 85 100 100 100 100 100
100 100 100 100 100 100 100 6 91 100 100 91 100 100 100 100 100 100 100 100 100 100 100 100 100 100 100 100 88 100 100 100 100 100 78 18 24 100 78 3 17 100 100 100 100 100 27 96 100 100 99 100 100 100
100 100 99 99 100 56 36 58 100 68 87 93 76 100 100 100 100 100 80 43 100 100 100 100 100 100 100 100 100 100 100 100 100 100 87 59 26 100 60 26 46 100 99 100 21 93 100 97 77 100 100 100 100 100
78 100 100 100 100 100 100 100 100 100 100 100 100 100 100 100 100 99 71 100 19 100 100 100 100 100 100 93 100 94 100 100 100 100 91 28 14 32 60 5 85 100 100 100 100 100 10 15 67 100 100 100 100 100
100 100 100 100 100 100 100 100 100 100 100 100 100 100 100 100 100 100 100 100 100 100 100 100 100 100 81 100 100 100 100 100 100 80 47 40 5 96 16 5 5 6 100 100 78 85 39 100 95 100 100 100 100 100
100 100 100 100 100 100 100 100 100 100 100 100 100 100 100 100 100 100 100 100 100 100 100 100 100 100 97 100 100 100 100 100 100 78 15 33 5 4 5 5 5 0 0 81 86 83 85 74 100 100 100 100 100 100
100 100 100 100 100 79 100 100 100 100 100 100 100 100 100 100 100 100 100 100 100 100 100 96 95 100 100 100 100 100 100 100 100 40 61 82 95 70 96 90 65 36 90 100 100 76 21 54 94 75 100 100 100 100
100 100 100 100 100 100 96 81 89 100 100 100 100 100 100 100 100 100 100 100 100 100 89 27 58 85 100 100 100 100 89 75 84 97 90 100 95 100 100 100 100 99 100 100 96 83 49 21 35 82 100 100 100 100
100 100 100 100 96 89 100 100 100 100 100 100 100 100 100 100 100 100 100 100 100 100 100 63 94 90 100 100 100 100 100 100 98 100 100 98 100 100 100 100 100 100 100 100 100 100 100 100 100 100 100 99 100 100
100 100 100 100 100 100 100 100 100 100 100 100 100 100 99 90 100 100 100 100 100 100 100 100 100 100 100 100 100 100 100 100 100 100 100 100 100 100 100 100 100 100 100 100 100 100 100 100 100 100 100 96 98 100
100 100 100 100 100 100 100 100 100 100 100 100 100 100 100 100 100 100 100 100 100 100 100 100 100 100 100 100 100 100 100 98 84 100 100 88 100 100 100 100 100 100 100 100 100 100 100 100 100 100 100 100 100 100
99 89 85 100 100 100 100 100 100 100 100 100 100 100 100 100 100 100 100 100 100 100 100 100 100 100 100 100 100 100 100 93 98 98 97 97 100 100 100 100 100 100 100 100 100 100 100 100 100 100 100 100 100 100
93 86 97 100 100 100 90 100 74 100 100 100 100 100 100 100 100 100 100 100 100 100 100 100 100 100 99 82 77 96 98 100 100 100 100 100 100 100 100 100 100 100 100 100 100 100 100 100 100 100 100 100 100 100
65 63 57 98 86 89 100 91 73 100 100 100 100 100 100 100 100 100 100 100 100 100 100 100 100 100 100 100 100 100 100 100 100 100 100 100 100 100 100 100 100 100 100 100 100 100 100 100 100 100 100 100 100 100
99 100 72 8 10 71 99 56 42 51 98 100 100 100 100 100 100 100 100 100 100 100 100 100 100 100 100 100 100 100 100 100 100 100 100 100 100 100 100 100 100 100 100 100 100 100 100 100 100 100 100 100 100 100
97 78 96 81 23 5 20 64 15 6 85 100 100 100 100 98 100 100 100 100 100 100 100 100 100 100 100 100 100 100 100 100 100 100 100 100 100 100 100 100 100 100 100 100 100 100 100 100 100 100 100 100 100 100
98 100 96 100 95 88 67 33 41 37 76 65 100 100 100 100 100 100 100 100 100 100 100 100 100 100 100 100 100 100 100 100 100 100 100 100 100 100 100 100 100 100 100 100 100 100 100 100 100 100 100 100 100 100
82 100 100 100 100 100 90 96 97 100 64 85 91 96 100 100 100 100 100 98 100 100 97 100 100 100 100 100 100 100 100 100 100 100 100 100 100 100 100 100 100 100 100 100 100 100 100 100 100 100 100 100 100 100
100 100 98 100 100 94 98 98 100 100 93 84 92 84 88 87 88 78 84 92 97 100 100 100 100 100 100 100 100 100 100 100 100 100 100 100 100 100 100 100 100 100 100 100 100 100 100 100 100 100 100 100 100 100
100 78 50 100 100 100 100 100 100 100 100 100 100 100 98 99 98 77 92 100 100 100 100 100 100 100 100 100 100 100 100 100 100 100 100 100 100 100 100 100 100 100 100 100 100 100 100 100 100 100 100 100 100 100
100 89 100 100 100 100 100 100 100 100 100 100 100 100 100 100 100 100 100 100 100 100 100 100 100 100 100 100 100 100 100 100 100 100 100 100 100 100 100 100 100 100 100 100 100 100 100 100 100 100 100 100 100 100
90 75 93 93 100 100 100 100 100 100 100 100 100 100 100 98 95 100 100 100 100 100 100 100 98 95 98 100 100 100 100 100 100 100 100 100 100 100 100 100 100 100 100 100 100 100 100 100 100 100 100 100 90 80
96 95 85 90 80 84 95 97 93 98 99 100 83 62 77 90 100 100 100 100 100 100 98 96 96 98 100 100 100 100 100 100 100 100 100 100 100 100 100 100 100 100 100 100 100 100 100 100 100 100 100 100 99 70
62 57 79 68 57 21 90 77 98 100 98 100 9 93 60 86 96 100 96 99 93 86 100 100 100 100 100 100 100 100 100 100 100 100 100 100 100 100 100 100 100 100 100 100 100 100 100 100 100 100 68 49 54 77
17 33 5 68 16 68 100 99 100 97 97 98 61 100 99 99 100 81 97 81 84 86 90 97 93 98 100 100 100 100 100 100 100 100 100 100 100 100 100 100 100 100 100 100 100 98 97 60 58 45 71 87 66 76
7 9 31 52 80 100 100 85 94 74 66 74 78 94 94 100 100 98 86 76 72 82 93 98 100 100 100 100 100 100 100 100 100 100 100 100 100 100 100 100 100 100 100 96 94 98 99 99 95 42 31 79 83 100
18 5 34 46 98 97 69 58 39 24 5 17 48 65 98 100 100 100 98 93 86 87 87 84 81 88 100 100 100 100 100 100 100 100 100 100 100 100 100 100 96 87 43 33 59 99 100 100 100 95 95 60 66 68
30 40 47 64 96 100 97 81 99 84 100 44 62 76 91 27 96 72 97 94 83 91 84 82 84 79 87 93 86 84 94 100 100 100 100 100 100 100 100 83 67 69 39 70 58 55 86 100 100 100 100 100 100 99
75 32 69 93 79 100 90 99 90 90 97 97 93 89 86 74 86 95 93 88 100 92 85 100 98 97 98 100 88 97 79 94 100 100 100 100 79 95 87 71 59 57 70 100 94 74 60 47 60 56 87 100 100 100

GFSWCAN_prec_cloud_084.txt.gz
Cloud_Cover
100 100 100 100 100 100 100 100 100 100 100 100 100 100 100 100 100 100 100 100 100 100 100 100 100 100 100 100 100 100 100 100 100 100 100 100 99 16 8 5 2 4 98 100 100 100 100 100 100 100 100 27 5 50
100 100 100 100 100 100 100 100 100 100 100 100 100 100 100 100 100 100 100 100 100 100 100 100 100 100 100 100 100 100 100 100 100 92 60 54 13 40 69 53 5 1 8 100 100 100 100 100 100 100 100 100 42 3
100 100 99 60 26 66 86 59 99 100 100 100 100 100 100 100 100 100 100 100 100 100 100 100 100 100 100 100 100 100 100 100 100 100 98 88 92 54 6 10 3 48 6 100 100 100 100 100 100 100 64 94 93 99
98 100 98 95 99 87 100 96 100 100 100 100 100 100 100 100 100 100 100 100 100 100 100 100 100 100 100 100 100 100 100 100 100 100 100 99 100 75 5 6 75 69 93 100 100 100 100 100 100 100 53 79 80 97
100 100 100 100 100 100 100 100 100 100 100 100 100 100 100 100 100 100 100 100 100 100 100 100 100 100 100 100 100 100 100 97 100 100 100 100 99 100 84 12 5 48 100 100 100 100 100 100 100 100 100 52 95 84
100 100 100 100 100 100 100 100 100 100 100 100 100 100 100 100 100 100 100 100 100 100 100 100 100 100 100 100 100 100 100 100 100 100 100 100 89 30 77 46 64 5 62 100 100 100 100 100 100 39 28 100 100 98
100 100 100 100 100 100 100 98 96 100 100 100 100 100 48 100 100 100 99 90 100 100 100 100 100 100 100 100 100 100 100 100 100 100 100 100 100 88 84 86 100 70 7 99 100 100 100 100 100 85 15 100 99 100
100 100 100 100 94 100 100 91 90 100 98 100 97 100 100 100 100 100 100 100 100 100 100 100 100 100 67 100 100 100 100 100 100 100 100 77 65 44 96 85 100 100 88 96 100 100 100 100 100 100 94 56 100 100
100 100 100 100 100 100 90 95 73 98 100 100 100 100 100 100 100 100 100 100 100 100 100 93 100 100 85 84 100 100 100 100 100 100 80 49 64 100 96 65 100 100 74 9 11 100 100 100 100 100 100 100 100 100
100 100 100 100 100 100 100 100 100 100 100 100 100 100 100 100 100 100 100 100 100 97 99 100 100 100 100 100 100 100 100 100 100 84 79 100 88 15 10 4 7 91 5 5 5 13 100 100 100 100 98 86 100 100
100 100 100 100 100 100 100 100 100 100 100 100 100 100 100 100 100 100 100 100 100 100 100 81 99 100 100 100 100 100 100 92 98 88 82 100 96 73 84 100 100 100 91 65 17 84 100 100 100 100 100 100 100 100
100 100 100 100 100 100 100 100 100 100 100 100 100 100 100 100 100 100 100 100 98 52 100 63 100 100 98 100 100 100 99 100 78 24 100 100 93 100 100 100 100 100 100 100 94 30 37 52 76 100 99 92 99 98
100 100 100 100 100 100 100 100 100 100 100 100 100 100 100 100 100 100 99 98 93 100 100 100 96 88 100 97 100 100 100 100 81 100 93 88 91 89 100 100 100 100 100 100 100 100 96 99 91 97 100 100 100 100
100 100 100 100 100 100 100 100 100 100 100 100 100 100 99 97 100 100 90 98 100 100 93 87 98 99 100 100 100 100 57 92 100 100 83 93 87 100 100 100 100 100 100 100 100 100 100 100 100 100 100 100 100 100
100 100 100 100 100 100 100 100 100 100 100 100 100 100 100 100 100 100 100 100 100 100 100 100 95 76 100 100 100 98 99 100 100 100 100 100 98 97 100 100 100 100 100 100 100 100 100 100 100 100 100 100 100 100
100 100 100 100 100 100 100 100 100 100 100 100 99 98 94 100 100 100 100 100 100 100 99 100 95 98 100 100 100 100 100 100 100 100 100 100 100 100 100 100 100 100 100 100 100 100 100 100 100 100 100 100 100 100
100 100 100 100 100 100 100 100 100 100 100 100 100 100 100 100 100 100 100 100 100 100 100 100 100 100 100 100 100 100 100 100 100 100 95 94 100 100 100 100 100 100 100 100 100 100 100 100 100 100 100 100 100 100
98 96 97 100 100 100 100 100 100 100 100 100 100 100 100 100 100 100 100 100 100 100 100 100 100 100 100 100 100 100 100 100 100 100 100 100 100 100 100 100 100 100 100 100 100 100 100 100 100 100 100 100 100 100
26 35 26 92 81 98 100 76 78 100 91 99 100 100 100 100 100 100 100 100 100 100 100 100 100 100 100 100 100 100 100 100 100 100 100 100 100 100 100 100 100 100 100 100 100 100 100 100 100 100 100 100 100 100
14 3 4 9 40 28 93 59 94 71 87 99 100 100 100 100 100 100 100 100 100 100 100 100 100 100 100 100 100 100 100 100 100 100 100 100 100 100 100 100 100 100 100 100 100 100 100 100 100 100 100 100 100 100
93 100 100 62 14 5 65 33 43 69 74 72 99 99 100 100 100 100 100 100 100 100 100 100 100 100 100 100 100 100 100 100 100 100 100 100 100 100 100 100 100 100 100 100 100 100 100 100 100 100 100 100 100 100
97 98 93 63 16 63 100 71 89 75 65 91 90 66 89 94 99 100 95 100 100 100 100 100 100 100 100 100 100 100 100 100 100 100 100 100 100 100 100 100 100 100 100 100 100 100 100 100 100 100 100 100 100 100
100 100 88 88 78 37 82 70 26 95 78 99 94 81 94 94 74 70 63 98 100 100 100 95 97 97 99 100 99 98 100 100 100 100 100 100 100 100 100 100 100 100 100 100 100 100 100 100 100 100 100 100 100 100
100 99 85 93 74 90 95 91 90 99 88 98 92 100 99 100 99 100 99 100 100 100 100 100 100 100 100 100 100 100 100 100 100 100 100 100 100 100 100 100 100 100 100 100 100 100 100 100 100 100 100 100 100 100
68 51 100 100 100 100 100 83 82 97 100 100 100 100 96 100 100 100 100 100 100 100 100 100 100 100 100 100 100 100 100 100 100 100 100 100 100 100 100 100 100 100 100 100 100 100 100 100 100 100 100 100 100 100
77 75 59 83 72 80 72 96 100 100 100 100 100 100 100 100 100 100 100 100 100 100 100 100 100 100 100 100 99 99 100 100 100 100 100 100 100 100 100 100 100 100 100 100 100 100 100 100 100 100 100 100 100 100
73 78 50 79 88 74 69 63 49 48 86 100 86 75 77 96 100 99 95 98 89 97 93 89 90 88 100 100 100 100 100 100 100 100 100 100 100 100 100 100 100 100 100 100 100 100 100 100 100 100 100 100 100 100
52 68 89 71 55 40 91 72 94 100 99 98 9 93 83 72 100 100 100 100 98 99 98 97 93 89 100 100 100 100 100 100 100 100 100 100 100 100 100 100 100 100 100 100 100 100 100 100 100 100 100 100 100 96
72 71 44 89 36 58 99 100 100 100 100 76 61 100 100 100 100 100 100 100 100 100 100 100 100 95 100 100 100 100 100 100 100 100 100 100 100 100 100 100 100 100 100 100 100 100 100 100 100 100 94 58 80 100
9 9 37 47 86 100 100 98 95 95 90 99 92 97 97 100 100 100 100 97 100 99 94 83 83 85 85 91 92 98 98 100 100 100 100 100 100 100 100 100 100 100 96 100 99 100 100 100 93 78 87 100 100 100
20 5 35 36 90 96 86 83 52 34 6 7 54 66 99 97 98 98 86 98 96 68 66 66 76 76 71 74 79 86 85 92 100 100 100 100 100 100 100 100 100 100 100 100 100 100 100 100 100 100 70 58 74 70
53 72 52 72 96 100 100 97 98 89 100 88 99 79 74 19 97 94 92 85 97 81 77 76 72 84 88 75 75 73 69 89 79 84 96 100 100 100 100 97 91 82 42 68 72 100 100 100 100 100 100 100 100 100
82 56 85 95 93 100 86 98 75 87 91 98 97 100 100 42 83 97 99 99 98 89 77 93 86 81 66 66 96 100 98 100 100 100 100 100 96 100 100 89 84 100 97 97 94 72 79 51 82 65 87 99 100 100

GFSWCAN_prec_cloud_087.txt.gz
Cloud_Cover
100 100 100 100 100 100 100 100 100 100 100 100 100 100 100 100 100 100 100 100 71 100 68 96 100 99 100 95 99 100 100 100 100 100 100 84 7 17 97 96 23 6 40 81 100 100 77 85 100 100 100 96 100 100
100 100 100 100 100 100 100 100 100 100 100 100 100 100 100 100 100 100 100 100 100 100 100 100 100 100 100 100 100 100 100 99 100 100 74 20 56 96 98 90 86 36 2 4 9 53 100 100 100 100 100 100 100 100
100 98 98 98 100 100 100 100 100 100 100 100 100 100 100 100 100 100 100 100 100 100 100 100 100 100 100 100 100 100 98 89 100 100 99 90 81 100 98 100 6 5 1 0 0 4 100 100 100 100 100 100 100 100
56 100 99 100 96 85 37 92 100 100 100 100 100 100 100 100 100 100 100 100 100 100 100 100 100 100 100 100 100 100 100 100 100 100 100 100 100 100 100 92 51 5 4 0 6 36 100 100 100 100 100 100 100 100
100 100 100 90 100 100 100 100 100 97 100 100 100 100 100 100 100 100 100 100 100 100 100 100 100 100 100 100 100 100 100 100 100 100 100 100 100 100 100 47 95 40 3 4 48 45 100 100 100 100 100 100 100 99
100 100 84 100 100 100 100 93 100 100 100 100 100 100 100 100 100 100 100 100 100 100 100 100 100 100 100 100 100 100 100 100 100 100 100 100 100 100 89 86 93 100 8 5 10 32 83 100 100 100 100 100 100 58
100 100 100 95 98 90 100 94 98 97 100 100 100 100 100 100 100 100 100 100 100 100 100 100 100 100 100 100 100 100 100 100 100 100 100 85 79 100 100 100 100 100 7 4 11 100 100 100 100 100 100 100 100 100
100 99 64 80 71 98 100 100 88 84 100 100 100 100 100 100 100 100 100 100 100 100 100 100 100 100 100 100 100 100 100 100 100 100 100 92 84 92 100 100 100 100 39 3 5 97 100 100 100 100 100 100 100 99
100 100 100 100 83 97 100 100 100 100 100 100 100 100 100 100 100 100 100 100 100 100 100 100 100 100 100 100 100 100 100 100 100 100 100 94 60 100 98 100 100 100 100 31 5 38 100 100 100 100 100 100 99 98
100 100 100 100 100 100 92 82 100 100 100 100 100 100 100 100 100 100 100 100 100 96 100 100 100 100 100 100 100 100 100 100 100 100 75 100 66 12 100 100 100 100 100 57 15 5 40 100 100 100 100 100 100 100
100 100 100 100 100 100 100 100 100 100 100 100 100 100 100 100 100 100 100 100 100 100 100 93 100 100 100 100 100 100 100 100 86 33 96 100 100 70 90 88 97 96 68 79 100 100 50 67 100 100 100 100 100 100
100 100 100 100 100 100 100 100 100 100 100 100 100 100 100 100 100 100 100 100 100 100 100 100 93 98 100 100 100 100 100 100 56 60 100 100 100 100 100 97 75 74 93 100 96 100 95 49 54 100 100 100 100 100
93 100 100 100 100 100 100 100 100 100 100 100 100 100 100 100 100 100 99 92 100 100 100 100 97 80 100 100 100 100 100 95 49 100 96 100 100 100 100 100 100 99 100 100 100 100 100 100 100 95 100 100 100 100
100 99 100 100 100 100 100 100 100 100 100 100 100 100 100 100 100 100 97 100 100 100 100 100 100 100 100 100 100 100 100 100 100 100 93 100 100 98 97 96 100 96 82 99 100 100 100 100 100 100 100 100 100 100
100 100 100 100 100 100 100 100 100 100 100 100 100 99 100 100 100 100 100 100 100 100 100 100 100 100 98 100 100 100 100 100 99 100 100 100 93 98 91 100 93 93 100 100 100 100 100 100 100 100 100 100 100 100
100 99 100 100 100 100 100 100 100 100 100 100 100 100 100 100 100 100 100 100 100 100 100 100 100 100 100 99 99 100 98 98 100 100 100 99 100 100 100 100 100 100 100 100 100 100 100 100 100 100 100 100 100 100
100 100 100 100 100 100 100 100 100 100 100 74 100 100 100 100 98 100 100 100 100 100 100 98 89 99 100 100 100 100 100 100 100 100 100 100 100 100 100 100 100 100 100 100 100 100 100 100 100 100 100 100 100 100
100 100 100 100 100 100 100 100 100 100 100 100 100 100 100 98 100 100 100 100 100 100 100 100 100 100 100 100 100 100 100 100 100 100 100 100 100 100 100 100 100 100 100 100 100 100 100 100 100 100 100 100 100 100
100 100 100 99 100 93 100 100 100 100 100 100 100 100 100 100 100 100 100 100 100 100 100 100 100 100 100 100 100 100 100 100 100 100 100 100 100 100 100 100 100 100 100 100 100 100 100 100 100 100 100 100 100 100
8 59 99 56 17 33 52 97 43 72 99 99 100 100 100 100 100 100 100 100 100 100 100 100 100 100 100 100 100 100 100 100 100 100 100 100 100 100 100 100 100 100 100 100 100 100 100 100 100 100 100 100 100 100
90 88 5 5 5 5 65 40 100 76 70 100 99 100 100 100 100 100 100 100 100 100 100 100 100 100 100 100 100 100 100 100 100 100 100 100 100 100 100 100 100 100 100 100 100 100 100 100 100 100 100 100 100 100
83 36 5 5 17 84 64 44 63 58 69 89 100 88 100 100 100 99 100 100 100 100 100 100 100 100 100 100 100 100 100 100 100 100 100 100 100 100 100 100 100 100 100 100 100 100 100 100 100 100 100 100 100 100
100 100 100 46 5 16 75 55 24 89 74 96 100 97 100 97 100 100 97 98 100 100 100 100 100 100 100 100 100 100 100 100 100 100 100 100 100 100 100 100 100 100 100 100 100 100 100 100 100 100 100 100 100 100
93 90 79 100 92 90 34 5 23 18 62 86 71 85 84 67 81 93 95 100 100 100 100 100 100 99 90 100 100 100 100 100 100 100 100 100 100 100 100 100 100 100 100 100 100 100 100 100 100 100 100 100 100 100
99 67 84 79 49 39 43 88 99 100 100 99 100 98 89 100 100 100 100 100 100 100 100 100 100 100 100 100 100 100 100 100 100 100 100 100 100 100 100 100 100 100 100 100 100 100 100 100 100 100 100 100 100 100
100 90 88 92 81 68 77 94 99 96 88 86 97 97 95 95 91 100 100 100 100 100 100 100 100 100 100 100 100 100 100 100 100 100 100 100 100 100 100 100 100 100 100 100 100 100 100 100 100 100 100 100 100 100
87 92 51 68 84 81 78 44 19 10 87 99 82 45 42 90 100 100 99 99 100 100 100 100 100 100 100 100 100 100 100 100 100 100 100 100 100 100 100 100 100 100 100 100 100 100 100 100 100 100 100 100 100 100
82 68 49 70 61 57 80 74 98 100 100 98 55 92 78 77 98 96 93 99 100 100 100 100 100 100 100 100 100 100 100 100 100 100 100 100 100 100 100 100 100 100 100 100 100 100 100 100 100 100 100 100 100 100
68 77 47 85 80 86 100 100 100 100 100 58 60 100 100 99 100 90 99 96 99 93 98 100 100 100 100 100 100 100 100 100 100 100 100 100 100 100 100 100 100 100 100 100 100 100 100 100 100 100 100 100 100 100
41 60 45 58 77 100 100 100 94 98 96 99 92 98 91 100 100 98 91 86 87 93 98 100 100 100 100 100 100 100 100 100 100 100 100 100 100 100 100 100 100 100 100 100 100 100 100 99 97 92 78 95 100 100
25 5 34 13 92 100 100 86 51 61 7 11 59 56 95 98 100 100 100 98 92 96 99 98 99 98 93 88 92 99 100 99 99 99 100 100 100 100 100 100 100 100 100 100 99 88 100 98 84 78 58 13 44 48
53 47 57 80 94 96 94 84 93 89 100 92 99 86 66 27 94 98 100 99 100 100 96 100 100 100 100 100 98 93 88 99 99 97 96 100 100 97 98 100 97 94 75 63 100 100 100 99 100 100 100 100 100 100
82 66 92 97 98 99 94 60 61 89 90 100 100 100 100 43 83 97 99 96 90 98 100 99 99 100 100 100 99 98 93 99 100 100 100 100 99 96 98 100 100 98 75 33 57 51 67 54 80 77 66 64 85 100

GFSWCAN_prec_cloud_093.txt.gz
Cloud_Cover
100 97 100 100 100 100 100 100 99 100 100 100 100 100 100 100 100 100 100 100 90 81 61 98 40 98 95 97 99 93 100 82 100 98 99 100 100 100 100 100 100 100 92 91 89 100 91 10 73 37 65 90 72 67
96 30 8 7 12 95 100 100 100 100 100 100 100 100 100 100 100 100 100 100 100 100 63 82 81 100 100 54 100 100 100 100 94 84 60 98 100 53 100 100 100 100 34 83 62 34 78 35 7 6 5 80 85 66
62 98 100 100 100 100 100 100 100 100 100 100 100 100 100 100 100 100 100 100 100 100 91 68 33 4 26 56 100 100 97 100 100 100 100 100 100 92 100 100 100 99 100 83 96 98 100 100 56 31 5 45 31 5
95 100 100 99 100 100 100 98 100 100 100 100 100 100 100 100 100 100 100 100 100 100 88 9 5 3 2 5 41 13 66 90 100 100 100 96 90 97 99 100 100 100 100 100 100 100 92 86 85 94 54 5 73 6
91 97 100 100 100 100 100 100 85 100 100 100 100 100 100 100 100 100 100 100 100 82 93 97 82 45 31 99 100 100 37 98 100 100 100 92 72 100 100 98 82 87 99 100 99 100 84 100 98 100 88 98 24 1
100 100 100 100 100 100 100 100 100 47 98 100 100 100 100 100 100 100 100 100 100 100 100 100 100 100 88 27 75 100 100 100 100 100 100 98 100 84 100 100 100 100 100 100 100 100 66 6 5 98 98 9 0 97
100 92 85 99 70 86 98 99 100 100 79 74 100 99 100 100 100 100 100 100 100 100 100 100 100 100 100 100 99 100 100 100 100 100 100 100 100 99 100 100 100 100 100 100 98 97 17 73 80 59 69 5 100 100
100 100 100 87 86 81 91 98 85 100 70 68 100 100 100 100 100 100 100 100 100 100 100 100 100 100 100 100 100 100 100 100 100 100 100 100 100 99 100 100 100 100 100 100 86 28 4 5 5 49 31 4 100 100
100 100 100 100 100 55 95 100 44 58 100 100 100 100 100 100 100 100 100 100 100 100 100 100 100 100 100 100 100 100 100 100 100 100 100 100 100 100 100 100 100 100 100 100 100 8 7 14 7 9 27 19 100 100
100 99 100 100 100 100 100 100 36 98 100 100 100 100 100 100 100 100 100 100 100 100 100 100 100 100 100 100 100 100 100 100 100 100 100 100 100 100 100 100 100 100 100 98 29 6 5 5 19 4 5 24 62 100
100 100 63 100 93 96 91 100 100 100 100 100 100 100 100 100 100 100 100 100 100 100 100 100 100 100 96 100 100 100 100 100 100 100 100 100 100 100 100 100 100 100 100 100 100 98 74 82 78 55 46 90 58 89
100 100 100 100 98 74 97 100 100 100 100 100 99 100 100 100 100 100 100 94 100 100 78 97 100 100 82 98 100 100 91 100 95 94 98 93 100 100 100 100 100 100 100 88 83 94 99 100 100 100 90 91 100 100
100 100 100 100 100 100 100 100 100 100 100 100 100 100 100 100 100 86 100 100 100 100 100 97 69 100 100 99 98 100 99 78 100 100 100 100 100 100 90 100 95 76 96 100 98 100 100 100 100 100 100 100 100 100
100 100 100 100 100 100 100 100 100 100 100 100 100 94 98 100 100 100 100 100 100 100 100 100 98 95 100 100 100 100 100 100 100 100 100 100 100 100 100 100 100 100 100 100 100 100 100 100 97 95 100 100 100 100
100 100 100 100 100 100 100 100 100 100 100 100 100 100 94 100 100 100 100 100 100 100 100 100 100 100 99 100 100 100 100 98 99 100 100 100 100 100 100 100 100 100 100 100 100 100 100 99 99 100 100 100 100 100
100 100 100 100 100 100 100 100 100 100 100 100 100 100 100 100 100 100 100 100 100 100 100 100 100 100 100 100 100 100 100 100 100 100 100 100 100 100 100 100 100 100 100 100 100 100 100 100 100 100 100 100 100 100
100 100 100 100 100 100 100 100 100 100 100 100 100 100 100 100 100 100 100 100 100 100 100 100 100 97 100 100 100 100 100 100 100 100 100 100 100 100 100 100 100 100 100 100 100 100 100 100 100 100 100 100 100 100
100 100 100 100 88 97 100 100 100 100 100 100 100 100 100 100 100 100 100 100 100 100 100 100 99 100 100 100 100 100 100 100 100 100 100 100 100 100 100 100 100 100 100 100 100 100 100 100 100 100 100 100 100 100
100 100 100 100 100 100 100 100 89 94 100 100 100 100 100 100 100 100 100 100 100 98 90 97 100 100 100 100 100 100 100 100 100 100 100 100 100 100 100 100 100 100 100 100 100 100 100 100 100 100 100 100 100 100
100 100 100 100 100 100 100 96 81 86 100 100 100 100 100 100 100 100 100 100 100 100 100 100 100 100 100 100 100 100 100 100 100 100 100 100 100 100 100 100 100 100 100 100 100 100 100 100 100 100 100 100 100 100
68 100 100 100 65 70 100 100 100 85 100 100 100 100 100 100 100 100 100 100 100 100 100 100 100 100 100 100 100 100 100 100 100 100 100 100 100 100 100 100 100 100 100 100 100 100 100 100 100 100 100 100 100 100
7 40 6 31 54 74 88 99 100 100 100 100 100 100 100 100 100 100 100 100 100 100 100 100 100 100 100 100 100 100 100 100 100 100 100 97 100 100 100 100 100 100 100 100 100 100 100 100 100 100 100 100 100 100
63 38 32 50 7 17 87 99 99 100 100 100 100 100 100 100 99 100 100 100 100 100 100 100 100 100 100 100 100 100 100 100 100 100 100 100 100 100 100 100 100 100 100 100 100 100 100 100 100 100 100 100 100 100
15 37 30 19 34 81 21 72 99 100 99 100 100 100 100 100 96 99 100 100 100 100 100 100 100 100 100 100 100 100 100 100 100 100 100 100 100 100 100 100 100 100 100 100 100 100 100 100 100 100 100 100 100 100
56 50 85 47 54 55 88 96 96 97 100 98 100 98 100 99 100 100 100 100 100 100 100 100 100 100 100 100 100 100 100 100 100 100 100 100 100 100 100 100 100 100 100 100 100 100 100 100 100 100 100 100 100 100
78 84 71 82 65 89 92 100 100 100 100 100 100 99 99 100 100 100 100 100 100 100 100 100 100 100 100 100 100 100 100 100 100 100 100 100 100 100 100 100 100 100 100 100 100 100 100 100 100 100 100 100 100 100
93 100 92 96 98 79 72 80 72 77 98 100 98 99 95 99 100 100 100 100 100 100 100 100 100 100 100 100 100 100 100 100 100 100 100 100 100 100 100 100 100 100 100 100 100 100 100 100 100 100 100 100 100 100
78 73 73 64 74 62 66 77 86 97 97 49 33 96 99 99 100 100 100 100 100 100 100 100 100 100 100 100 100 100 100 100 100 100 100 100 100 100 100 100 100 100 100 100 100 100 100 100 100 100 100 100 100 100
66 41 57 70 62 84 98 100 100 100 100 98 100 100 100 100 100 100 100 100 100 100 100 100 100 100 100 100 100 100 100 100 95 100 100 100 100 100 100 100 100 100 100 100 100 100 100 100 100 100 100 100 100 100
61 74 47 56 86 100 100 100 100 100 99 100 100 100 100 100 100 100 100 100 100 100 100 100 100 100 100 100 97 98 100 100 100 100 100 100 100 100 100 100 100 100 100 100 100 100 100 100 100 100 100 100 100 100
69 16 40 69 100 100 100 100 100 100 100 100 100 98 99 100 100 100 100 100 100 100 100 100 96 95 100 100 100 100 100 100 100 100 100 100 100 100 100 100 100 100 100 100 100 100 100 100 100 100 100 100 95 86
82 43 50 80 100 100 100 100 100 100 100 100 100 100 100 100 100 100 100 100 100 100 58 94 99 100 100 100 100 100 82 100 100 100 100 100 100 100 100 100 100 100 100 100 100 100 100 100 100 100 100 100 100 100
94 56 73 100 100 100 93 100 74 99 100 100 100 100 100 100 100 100 100 100 100 100 100 100 100 100 93 96 94 76 93 61 66 55 17 37 56 41 90 100 100 100 100 100 100 100 100 100 100 100 100 100 100 100

GFSWCAN_prec_cloud_096.txt.gz
Cloud_Cover
65 67 33 56 66 100 61 41 63 7 5 5 35 32 100 100 100 100 100 100 94 63 94 59 73 90 55 92 99 100 16 34 97 83 85 100 10 100 100 100 100 100 100 100 100 100 100 100 68 97 69 65 87 98
98 44 57 92 78 13 6 85 94 54 96 100 100 100 100 100 100 100 100 100 100 100 29 82 8 5 34 92 100 30 55 100 82 20 65 81 100 100 100 100 100 100 100 100 100 100 100 100 98 26 20 100 97 67
5 5 92 93 44 18 28 98 95 89 56 71 100 100 100 100 100 100 100 100 100 100 93 67 5 11 3 1 92 100 100 100 100 100 98 100 100 100 100 100 100 100 100 100 100 100 100 100 100 99 80 77 10 43
5 23 6 28 100 100 100 100 100 100 100 100 100 100 100 100 100 100 100 100 100 100 98 37 8 4 0 5 5 65 100 100 94 100 100 100 99 100 100 100 100 100 100 99 100 100 92 74 56 51 19 75 17 5
50 92 100 99 96 100 100 100 100 100 100 100 100 100 100 100 100 100 100 100 100 90 64 66 85 11 69 6 12 25 52 100 98 99 97 81 49 94 100 100 100 100 100 100 100 100 46 100 94 100 67 76 6 0
100 100 100 100 100 100 100 100 100 100 98 100 100 100 100 100 100 100 100 100 100 100 100 100 17 28 5 66 64 41 5 31 100 99 93 98 27 98 75 100 100 100 100 100 99 100 99 99 100 42 47 90 5 1
100 100 100 100 100 100 100 100 100 100 100 100 100 100 100 100 100 100 100 100 100 100 100 100 97 100 56 5 5 25 24 96 78 100 100 97 44 99 100 98 100 100 100 100 100 71 53 32 4 0 19 49 2 0
100 100 100 100 100 100 95 57 100 100 100 98 100 100 100 100 100 100 100 100 100 100 100 96 98 100 100 89 89 58 100 95 100 100 95 100 100 99 78 100 82 78 28 80 5 66 85 5 30 66 91 37 5 5
100 100 100 100 100 100 100 100 100 100 100 100 100 100 100 100 100 100 100 100 100 100 91 100 100 100 100 100 100 100 100 100 100 100 100 100 100 100 100 100 100 93 100 100 100 100 99 18 5 5 4 5 15 33
100 100 100 100 100 100 100 98 100 100 100 100 100 100 100 100 100 100 100 100 100 100 100 100 100 100 100 100 100 100 100 100 100 100 100 100 100 100 100 100 100 100 100 100 100 100 100 71 38 37 20 27 13 98
98 99 100 100 100 100 100 100 100 100 100 100 100 100 100 100 100 100 100 100 100 100 35 100 98 100 100 100 100 100 100 100 100 100 100 100 100 100 100 100 100 100 100 100 100 100 100 100 100 93 91 77 71 100
100 99 62 98 100 100 100 100 100 100 100 63 91 100 100 100 100 100 93 94 81 62 100 100 100 100 100 100 100 100 100 100 100 100 100 100 100 100 100 100 100 100 100 69 70 91 100 100 100 100 100 100 100 100
100 100 100 100 100 98 100 100 100 100 100 100 100 100 100 100 100 100 99 98 100 100 100 100 100 100 100 100 100 100 100 100 100 100 100 100 100 100 100 100 100 100 100 100 100 100 100 100 100 91 100 100 100 100
100 100 100 100 100 100 100 100 100 100 100 100 100 100 96 100 100 100 100 100 100 100 96 100 100 100 100 100 94 100 100 100 100 99 100 100 100 100 100 100 100 100 100 100 100 100 100 100 100 99 97 90 98 100
100 100 100 100 100 100 100 100 100 100 100 100 99 98 92 100 100 100 100 100 100 100 100 100 100 80 95 100 100 90 100 100 100 100 100 100 100 100 100 100 88 98 100 100 100 97 99 99 98 100 97 100 100 99
96 74 100 100 100 100 100 100 100 100 100 100 99 100 100 100 100 100 100 100 100 100 100 100 100 100 95 68 100 100 100 100 100 100 100 100 100 100 100 100 97 100 100 100 100 96 100 100 100 100 99 89 98 98
100 100 100 100 100 100 100 100 100 100 100 100 100 100 100 93 100 100 100 100 100 100 100 100 100 100 99 99 100 99 100 100 100 100 99 100 100 100 100 100 100 100 100 100 100 100 100 100 100 88 83 100 96 100
100 90 100 100 98 99 100 100 100 93 100 100 100 100 98 100 100 100 100 99 99 100 99 100 98 99 100 100 100 100 100 100 100 99 94 93 99 80 84 99 99 95 88 90 99 100 100 100 98 100 100 100 100 100
100 100 100 98 93 100 100 87 74 94 100 100 100 100 100 100 100 100 100 100 100 100 100 100 100 100 100 100 100 100 100 100 100 95 94 76 33 95 93 91 80 89 100 100 100 100 100 100 100 100 100 100 100 100
100 100 100 100 88 96 98 99 89 94 100 100 100 100 100 100 100 100 100 100 100 100 100 100 100 100 100 100 100 100 100 100 100 100 100 99 99 100 96 100 100 100 100 100 100 99 100 100 100 100 100 100 100 100
100 99 100 100 98 99 89 87 98 98 100 98 100 100 100 100 100 100 100 100 100 100 100 100 100 100 100 100 100 100 100 100 100 100 100 100 98 100 100 100 100 100 100 100 100 100 100 100 100 100 100 100 100 100
83 78 59 96 100 100 100 100 100 100 100 100 100 100 100 100 100 100 100 100 100 100 100 100 100 100 100 100 100 100 100 100 100 100 100 100 100 100 100 100 100 100 100 100 100 100 100 100 100 100 100 100 100 100
29 70 42 78 53 94 99 100 93 99 100 100 100 100 100 100 100 100 100 100 100 100 100 100 100 100 100 100 100 100 100 100 100 100 100 100 100 100 100 100 100 100 100 100 100 100 100 100 100 100 100 100 100 100
22 40 68 49 55 86 49 86 100 97 97 100 100 100 100 100 100 100 100 100 100 100 100 100 100 100 100 100 100 100 100 100 100 100 100 100 100 100 100 100 100 100 100 100 100 100 100 100 100 100 100 100 100 100
99 99 100 100 99 99 100 100 100 100 100 100 100 100 100 100 100 100 100 100 100 100 100 100 100 100 100 100 100 100 100 100 100 100 100 100 100 100 100 100 100 100 100 100 100 100 100 100 100 100 100 100 100 100
83 96 99 99 99 95 100 100 100 100 100 100 100 100 100 100 100 100 100 100 100 100 100 100 100 100 100 100 100 100 100 100 100 100 100 100 100 100 100 100 100 100 100 100 100 100 100 100 100 100 100 100 100 100
41 76 68 83 99 91 91 96 97 98 98 100 100 100 98 100 100 100 100 100 100 100 100 100 100 100 100 100 100 100 100 100 100 100 100 100 100 100 100 100 100 100 100 100 100 100 100 100 100 100 100 100 100 100
82 95 100 95 96 89 94 99 95 100 99 46 72 99 100 100 100 100 100 100 100 100 100 100 100 100 100 100 100 100 100 100 89 98 100 93 100 100 100 100 100 100 100 100 100 100 100 100 100 100 100 100 100 100
90 84 82 75 92 98 100 100 100 93 68 100 100 100 100 100 100 100 100 100 100 100 100 100 100 100 100 100 100 100 100 100 100 86 100 100 100 100 100 100 100 100 100 100 100 100 100 100 100 100 100 100 100 100
60 56 63 66 80 100 100 100 100 100 100 72 96 99 100 100 100 100 100 100 100 100 100 100 100 100 100 100 100 100 100 100 100 100 100 100 100 99 100 100 100 100 100 100 100 99 100 99 97 99 96 93 99 98
49 8 7 80 100 100 100 100 100 100 100 100 100 95 100 100 100 100 100 100 100 100 100 100 100 100 99 95 100 100 100 100 93 70 99 100 100 100 100 100 96 100 100 100 100 100 97 100 100 100 99 100 70 62
43 8 12 71 100 100 100 100 100 100 100 100 100 100 100 100 100 100 100 100 100 98 78 100 100 100 100 100 100 80 93 100 100 97 100 100 100 100 100 100 100 100 98 100 100 96 76 100 100 100 100 99 100 85
88 38 42 57 97 98 88 99 82 100 100 100 100 100 97 99 100 100 100 100 100 100 100 100 100 96 74 90 97 92 100 74 6 5 5 13 5 25 98 100 100 100 100 100 100 96 93 80 99 92 93 25 34 72